When you browse on this site, cookies collect data to enhance your experience and personalize the content and advertising you see.
Visit our Privacy Policy to learn more. By continuing to use the site, you agree to this use of cookies and data.
  • en France
  • Liste des pays
  • À 7 jours
  • Température de l'eau
  • Carte satellitaire
  • Carte météo
  • Widgets météo
  • user-avatar
    Se connecter

    Météo par heure à San Vicente

    Ce jour, 19 Juillet, Vendredi

    Heure Température Précipitation Vent Pression Humidité
    00:00 +8°C° 0 mm 1 m/s 746 mmHg 88%
    01:00 +7°C° 0 mm 1 m/s 746 mmHg 88%
    02:00 +7°C° 0 mm 1 m/s 746 mmHg 88%
    03:00 +7°C° 0 mm 1 m/s 746 mmHg 88%
    04:00 +7°C° 0 mm 1 m/s 745 mmHg 88%
    05:00 +7°C° 0 mm 1 m/s 745 mmHg 87%
    06:00 +7°C° 0 mm 1 m/s 745 mmHg 86%
    07:00 +7°C° 0 mm 1 m/s 745 mmHg 85%
    08:00 +9°C° 0 mm 1 m/s 745 mmHg 79%
    09:00 +11°C° 0 mm 1 m/s 745 mmHg 73%
    10:00 +13°C° 0 mm 1 m/s 745 mmHg 66%
    11:00 +14°C° 0 mm 1 m/s 744 mmHg 63%
    12:00 +15°C° 0 mm 1 m/s 744 mmHg 60%
    13:00 +16°C° 0 mm 1 m/s 744 mmHg 57%
    14:00 +15°C° 0 mm 1 m/s 744 mmHg 60%
    15:00 +14°C° 0 mm 1 m/s 744 mmHg 64%
    16:00 +14°C° 0 mm 2 m/s 744 mmHg 68%
    17:00 +12°C° 0 mm 1 m/s 743 mmHg 72%
    18:00 +10°C° 0 mm 1 m/s 743 mmHg 77%
    19:00 +9°C° 0 mm 1 m/s 743 mmHg 82%
    20:00 +9°C° 0 mm 1 m/s 743 mmHg 82%
    21:00 +8°C° 0 mm 1 m/s 743 mmHg 81%
    22:00 +8°C° 0 mm 1 m/s 742 mmHg 81%
    23:00 +8°C° 0 mm 1 m/s 742 mmHg 81%

    Demain, 20 Juillet, Samedi

    Heure Température Précipitation Vent Pression Humidité
    00:00 +8°C° 0 mm 1 m/s 741 mmHg 81%
    01:00 +8°C° 0 mm 1 m/s 741 mmHg 81%
    02:00 +8°C° 0 mm 1 m/s 741 mmHg 80%
    03:00 +8°C° 0 mm 1 m/s 740 mmHg 79%
    04:00 +7°C° 0 mm 0 m/s 740 mmHg 78%
    05:00 +7°C° 0 mm 0 m/s 740 mmHg 77%
    06:00 +7°C° 0 mm 0 m/s 740 mmHg 76%
    07:00 +7°C° 0 mm 0 m/s 740 mmHg 74%
    08:00 +9°C° 0 mm 0 m/s 740 mmHg 70%
    09:00 +10°C° 0 mm 0 m/s 740 mmHg 65%
    10:00 +12°C° 0 mm 0 m/s 740 mmHg 61%
    11:00 +13°C° 0 mm 1 m/s 740 mmHg 59%
    12:00 +14°C° 0 mm 1 m/s 739 mmHg 56%
    13:00 +15°C° 0 mm 1 m/s 739 mmHg 54%
    14:00 +14°C° 0 mm 1 m/s 739 mmHg 58%
    15:00 +14°C° 0 mm 1 m/s 739 mmHg 62%
    16:00 +13°C° 0 mm 1 m/s 739 mmHg 65%
    17:00 +13°C° 0 mm 1 m/s 739 mmHg 67%
    18:00 +12°C° 0 mm 2 m/s 739 mmHg 69%
    19:00 +10°C° 0 mm 2 m/s 739 mmHg 70%
    20:00 +10°C° 0.8 mm 2 m/s 739 mmHg 74%
    21:00 +9°C° 0.8 mm 2 m/s 740 mmHg 78%
    22:00 +9°C° 0.8 mm 2 m/s 740 mmHg 82%
    23:00 +9°C° 3.5 mm 2 m/s 740 mmHg 87%

    Après-demain, 21 Juillet, Dimanche

    Heure Température Précipitation Vent Pression Humidité
    00:00 +10°C° 3.5 mm 1 m/s 740 mmHg 92%
    01:00 +10°C° 3.5 mm 1 m/s 740 mmHg 96%
    02:00 +9°C° 1.4 mm 1 m/s 741 mmHg 96%
    03:00 +9°C° 1.4 mm 1 m/s 741 mmHg 96%
    04:00 +9°C° 1.4 mm 1 m/s 741 mmHg 96%
    05:00 +9°C° 0.5 mm 1 m/s 742 mmHg 94%
    06:00 +9°C° 0.5 mm 1 m/s 742 mmHg 93%
    07:00 +8°C° 0.5 mm 1 m/s 742 mmHg 92%
    08:00 +9°C° 0.1 mm 1 m/s 743 mmHg 86%
    09:00 +9°C° 0.1 mm 1 m/s 743 mmHg 81%
    10:00 +10°C° 0.1 mm 1 m/s 744 mmHg 75%
    11:00 +10°C° 0.1 mm 1 m/s 743 mmHg 72%
    12:00 +9°C° 0.1 mm 2 m/s 743 mmHg 70%
    13:00 +9°C° 0.1 mm 2 m/s 743 mmHg 67%
    14:00 +10°C° 0.1 mm 1 m/s 744 mmHg 67%
    15:00 +10°C° 0.1 mm 1 m/s 744 mmHg 66%
    16:00 +10°C° 0.1 mm 1 m/s 745 mmHg 66%
    17:00 +9°C° 0 mm 1 m/s 746 mmHg 69%
    18:00 +7°C° 0 mm 1 m/s 747 mmHg 73%
    19:00 +6°C° 0 mm 1 m/s 747 mmHg 76%
    20:00 +6°C° 0 mm 1 m/s 748 mmHg 77%
    21:00 +5°C° 0 mm 1 m/s 748 mmHg 78%
    22:00 +5°C° 0 mm 1 m/s 749 mmHg 79%
    23:00 +5°C° 0 mm 1 m/s 749 mmHg 80%

    22 Juillet, Lundi

    Heure Température Précipitation Vent Pression Humidité
    00:00 +5°C° 0 mm 1 m/s 749 mmHg 81%
    01:00 +4°C° 0 mm 1 m/s 749 mmHg 82%
    02:00 +4°C° 0 mm 1 m/s 749 mmHg 82%
    03:00 +4°C° 0 mm 1 m/s 748 mmHg 82%
    04:00 +3°C° 0 mm 1 m/s 748 mmHg 82%
    05:00 +3°C° 0 mm 1 m/s 748 mmHg 82%
    06:00 +3°C° 0 mm 1 m/s 748 mmHg 82%
    07:00 +3°C° 0 mm 1 m/s 748 mmHg 82%
    08:00 +5°C° 0 mm 1 m/s 748 mmHg 75%
    09:00 +6°C° 0 mm 2 m/s 748 mmHg 67%
    10:00 +8°C° 0 mm 2 m/s 748 mmHg 60%
    11:00 +8°C° 0 mm 2 m/s 748 mmHg 57%
    12:00 +9°C° 0 mm 2 m/s 747 mmHg 55%
    13:00 +10°C° 0 mm 3 m/s 746 mmHg 52%
    14:00 +10°C° 0 mm 3 m/s 747 mmHg 58%
    15:00 +9°C° 0 mm 3 m/s 747 mmHg 63%
    16:00 +9°C° 0 mm 2 m/s 747 mmHg 69%
    17:00 +7°C° 0 mm 2 m/s 748 mmHg 74%
    18:00 +5°C° 0 mm 2 m/s 748 mmHg 80%
    19:00 +5°C° 0 mm 1 m/s 748 mmHg 85%
    20:00 +4°C° 0 mm 1 m/s 748 mmHg 85%
    21:00 +4°C° 0 mm 1 m/s 748 mmHg 86%
    22:00 +4°C° 0 mm 1 m/s 748 mmHg 86%
    23:00 +3°C° 0 mm 1 m/s 748 mmHg 86%

    23 Juillet, Mardi

    Heure Température Précipitation Vent Pression Humidité
    00:00 +3°C° 0 mm 1 m/s 748 mmHg 87%
    01:00 +3°C° 0 mm 1 m/s 748 mmHg 87%
    02:00 +2°C° 0 mm 1 m/s 748 mmHg 87%
    03:00 +2°C° 0 mm 1 m/s 748 mmHg 87%
    04:00 +2°C° 0 mm 1 m/s 748 mmHg 87%
    05:00 +2°C° 0 mm 1 m/s 748 mmHg 85%
    06:00 +1°C° 0 mm 1 m/s 748 mmHg 84%
    07:00 +1°C° 0 mm 1 m/s 748 mmHg 83%
    08:00 +3°C° 0 mm 1 m/s 748 mmHg 72%
    09:00 +6°C° 0 mm 1 m/s 748 mmHg 62%
    10:00 +8°C° 0 mm 1 m/s 748 mmHg 51%
    11:00 +9°C° 0 mm 1 m/s 748 mmHg 49%
    12:00 +10°C° 0 mm 2 m/s 747 mmHg 47%
    13:00 +12°C° 0 mm 2 m/s 747 mmHg 45%
    14:00 +10°C° 0 mm 2 m/s 747 mmHg 51%
    15:00 +11°C° 0 mm 1 m/s 747 mmHg 56%
    16:00 +10°C° 0 mm 1 m/s 747 mmHg 62%
    17:00 +9°C° 0 mm 1 m/s 747 mmHg 65%
    18:00 +7°C° 0 mm 1 m/s 748 mmHg 68%
    19:00 +5°C° 0 mm 1 m/s 748 mmHg 71%
    20:00 +5°C° 0 mm 1 m/s 748 mmHg 72%
    21:00 +5°C° 0 mm 1 m/s 748 mmHg 73%
    22:00 +4°C° 0 mm 1 m/s 748 mmHg 74%
    23:00 +4°C° 0 mm 1 m/s 748 mmHg 73%

    24 Juillet, Mercredi

    Heure Température Précipitation Vent Pression Humidité
    00:00 +4°C° 0 mm 1 m/s 748 mmHg 71%
    01:00 +4°C° 0 mm 1 m/s 748 mmHg 70%
    02:00 +4°C° 0 mm 1 m/s 748 mmHg 67%
    03:00 +4°C° 0 mm 1 m/s 747 mmHg 63%
    04:00 +4°C° 0 mm 1 m/s 747 mmHg 60%
    05:00 +4°C° 0 mm 1 m/s 747 mmHg 58%
    06:00 +4°C° 0 mm 1 m/s 748 mmHg 55%
    07:00 +4°C° 0 mm 1 m/s 748 mmHg 53%
    08:00 +7°C° 0 mm 1 m/s 748 mmHg 49%
    09:00 +10°C° 0 mm 1 m/s 748 mmHg 45%
    10:00 +13°C° 0 mm 1 m/s 748 mmHg 41%
    11:00 +14°C° 0 mm 1 m/s 748 mmHg 40%
    12:00 +15°C° 0 mm 1 m/s 747 mmHg 39%
    13:00 +18°C° 0 mm 1 m/s 747 mmHg 38%
    14:00 +16°C° 0 mm 1 m/s 747 mmHg 45%
    15:00 +15°C° 0 mm 1 m/s 747 mmHg 51%
    16:00 +14°C° 0 mm 1 m/s 747 mmHg 58%
    17:00 +12°C° 0 mm 1 m/s 748 mmHg 62%
    18:00 +10°C° 0 mm 1 m/s 748 mmHg 65%
    19:00 +9°C° 0 mm 1 m/s 749 mmHg 69%
    20:00 +8°C° 0 mm 1 m/s 749 mmHg 68%
    21:00 +8°C° 0 mm 1 m/s 749 mmHg 67%
    22:00 +8°C° 0 mm 1 m/s 749 mmHg 66%
    23:00 +8°C° 0 mm 1 m/s 748 mmHg 64%
    Voir plus